N8SHA Weather Reports


Display with metric or nautical units.
time (UTC)temp
F
wind
direction
speed
MPH
gust
MPH
rain 1hr
in
rain 24hr
in
rain mn
in
humidity
%
barometer
mb
20260506073056 45 89 1.0 3.0 0.00 0.00 0.00 66 1009.0
20260506072553 45 121 0.0 2.0 0.00 0.00 0.00 65 1009.1
20260506072051 45 97 2.0 2.0 0.00 0.00 0.00 64 1009.0
20260506071548 46 69 1.0 2.0 0.00 0.00 0.00 64 1008.8
20260506071046 46 30 0.0 4.0 0.00 0.00 0.00 63 1008.9
20260506070543 46 304 0.0 3.0 0.00 0.00 0.00 63 1008.8
20260506062017 47 129 0.0 3.0 0.00 0.00 0.00 60 1008.9
20260506061513 47 346 1.0 5.0 0.00 0.00 0.00 60 1008.9
20260506061010 47 48 0.0 2.0 0.00 0.00 0.00 60 1009.1
20260506060509 47 92 3.0 3.0 0.00 0.00 0.00 60 1009.1
20260506050938 47 176 1.0 5.0 0.00 0.00 0.00 59 1008.6
20260506050435 47 311 4.0 5.0 0.00 0.00 0.00 60 1008.7
20260506044925 48 38 1.0 5.0 0.00 0.00 0.00 59 1008.8
20260506044424 48 139 3.0 3.0 0.00 0.00 0.00 59 1009.1
20260506043920 48 315 0.0 3.0 0.00 0.00 0.00 58 1008.8
20260506043418 48 33 2.0 4.0 0.00 0.00 0.00 57 1008.7
20260506042915 48 19 0.0 4.0 0.00 0.00 0.00 58 1008.6
20260506042415 48 298 1.0 6.0 0.00 0.00 0.00 58 1008.7
20260506041912 48 119 2.0 3.0 0.00 0.00 0.00 57 1008.6
20260506041410 48 340 1.0 3.0 0.00 0.00 0.00 57 1008.7
20260506040907 48 113 0.0 3.0 0.00 0.00 0.00 57 1008.6
20260506040404 48 83 1.0 3.0 0.00 0.00 0.00 59 1008.8
20260506035900 48 110 0.0 2.0 0.00 0.00 0.00 58 1008.6
20260506035358 48 83 2.0 3.0 0.00 0.00 0.00 57 1008.7
20260506034854 48 115 2.0 3.0 0.00 0.00 0.00 57 1008.6
20260506034352 48 124 0.0 2.0 0.00 0.00 0.00 57 1008.7
20260506033849 48 18 2.0 3.0 0.00 0.00 0.00 57 1008.8
20260506033346 48 75 0.0 2.0 0.00 0.00 0.00 60 1008.6
20260506032843 48 36 1.0 2.0 0.00 0.00 0.00 59 1008.6
20260506032339 48 131 2.0 3.0 0.00 0.00 0.00 60 1008.5
20260506031836 48 140 2.0 3.0 0.00 0.00 0.00 60 1008.8
20260506031333 48 149 1.0 2.0 0.00 0.00 0.00 59 1008.7
20260506030831 48 170 1.0 3.0 0.00 0.00 0.00 59 1008.9
20260506030329 48 129 0.0 2.0 0.00 0.00 0.00 59 1008.7
20260506025825 48 143 1.0 3.0 0.00 0.00 0.00 59 1008.7
20260506025322 48 139 2.0 2.0 0.00 0.00 0.00 59 1008.6
20260506024819 48 119 0.0 2.0 0.00 0.00 0.00 58 1008.5
20260506024316 48 155 0.0 2.0 0.00 0.00 0.00 57 1008.6
20260506023812 48 152 2.0 3.0 0.00 0.00 0.00 57 1008.6
20260506023309 48 160 0.0 4.0 0.00 0.00 0.00 57 1008.6
20260506022805 48 148 2.0 3.0 0.00 0.00 0.00 57 1008.7
20260506022305 48 129 0.0 2.0 0.00 0.00 0.00 57 1008.5
20260506021801 48 110 2.0 3.0 0.00 0.00 0.00 57 1008.4
20260506021258 49 141 0.0 3.0 0.00 0.00 0.00 57 1008.3
20260506020755 49 157 0.0 4.0 0.00 0.00 0.00 55 1008.7
20260506020253 49 139 2.0 3.0 0.00 0.00 0.00 56 1008.7
20260506015750 49 157 1.0 3.0 0.00 0.00 0.00 56 1008.6
20260506015247 49 135 0.0 3.0 0.00 0.00 0.00 55 1008.5
20260506014744 49 174 0.0 3.0 0.00 0.00 0.00 55 1008.3
20260506014241 49 121 2.0 3.0 0.00 0.00 0.00 55 1008.1
20260506013738 49 133 1.0 3.0 0.00 0.00 0.00 54 1008.2
20260506013235 50 96 1.0 2.0 0.00 0.00 0.00 53 1008.0
20260506012731 50 62 0.0 3.0 0.00 0.00 0.00 52 1008.2
20260506012228 50 343 1.0 2.0 0.00 0.00 0.00 51 1008.0
20260506011726 50 157 0.0 4.0 0.00 0.00 0.00 51 1008.1
20260506011221 50 44 0.0 3.0 0.00 0.00 0.00 51 1007.9
20260506010720 50 89 0.0 3.0 0.00 0.00 0.00 50 1008.0
20260506010217 50 150 1.0 4.0 0.00 0.00 0.00 50 1007.9
20260506005715 50 48 2.0 3.0 0.00 0.00 0.00 50 1008.1
20260506005211 51 115 1.0 2.0 0.00 0.00 0.00 49 1008.1
20260506004707 51 109 0.0 4.0 0.00 0.00 0.00 48 1008.0
20260506004205 51 242 0.0 3.0 0.00 0.00 0.00 48 1008.0
20260506003700 51 176 2.0 3.0 0.00 0.00 0.00 49 1008.0
20260506003157 51 156 1.0 3.0 0.00 0.00 0.00 48 1008.1
20260506002653 51 267 1.0 8.0 0.00 0.00 0.00 47 1008.0
20260506002149 51 355 2.0 6.0 0.00 0.00 0.00 48 1008.2
20260506001645 51 162 3.0 6.0 0.00 0.00 0.00 48 1007.9
20260506001143 51 180 2.0 4.0 0.00 0.00 0.00 48 1008.0
20260506000640 51 277 3.0 6.0 0.00 0.00 0.00 49 1007.8
20260506000137 51 40 1.0 2.0 0.00 0.00 0.00 49 1007.9
20260505235635 52 5 1.0 4.0 0.00 0.00 0.00 48 1007.8
20260505235132 52 117 2.0 5.0 0.00 0.00 0.00 47 1008.0
20260505234629 52 192 3.0 5.0 0.00 0.00 0.00 46 1007.6
20260505234125 52 246 0.0 5.0 0.00 0.00 0.00 46 1007.4
20260505233623 52 154 5.0 10.0 0.00 0.00 0.00 46 1007.6
20260505233120 52 102 0.0 3.0 0.00 0.00 0.00 47 1007.4
20260505232618 53 107 3.0 4.0 0.00 0.00 0.00 45 1007.4
20260505232115 53 192 3.0 5.0 0.00 0.00 0.00 43 1007.3
20260505231612 53 307 1.0 7.0 0.00 0.00 0.00 44 1007.6
20260505231111 53 192 2.0 5.0 0.00 0.00 0.00 44 1007.3
20260505230608 53 199 3.0 5.0 0.00 0.00 0.00 45 1007.3
20260505230104 53 23 3.0 8.0 0.00 0.00 0.00 44 1007.4
20260505225601 53 304 0.0 3.0 0.00 0.00 0.00 45 1007.2
20260505225057 53 251 1.0 8.0 0.00 0.00 0.00 44 1007.5
20260505224554 54 118 4.0 6.0 0.00 0.00 0.00 43 1007.4
20260505224051 54 149 4.0 6.0 0.00 0.00 0.00 43 1007.6
20260505223548 54 68 1.0 5.0 0.00 0.00 0.00 45 1007.4
20260505223044 54 39 0.0 5.0 0.00 0.00 0.00 47 1007.4
20260505222541 54 150 0.0 5.0 0.00 0.00 0.00 45 1007.4
20260505222037 55 232 2.0 7.0 0.00 0.00 0.00 45 1007.5
20260505221534 55 181 2.0 3.0 0.00 0.00 0.00 45 1007.3
20260505221031 55 156 5.0 5.0 0.00 0.00 0.00 46 1007.3
20260505220528 55 326 1.0 7.0 0.00 0.00 0.00 46 1007.4
20260505220026 55 175 3.0 7.0 0.00 0.00 0.00 47 1007.4
20260505215524 55 345 3.0 6.0 0.00 0.00 0.00 51 1007.3
20260505215021 55 111 2.0 7.0 0.00 0.00 0.00 51 1007.5
20260505214519 55 179 3.0 5.0 0.00 0.00 0.00 51 1007.3
20260505214016 55 181 3.0 6.0 0.00 0.00 0.00 55 1007.5
20260505213514 55 164 1.0 3.0 0.00 0.00 0.00 56 1007.4
20260505213010 55 209 3.0 5.0 0.00 0.00 0.00 58 1007.4
20260505212506 55 185 4.0 7.0 0.00 0.00 0.00 58 1007.5
20260505212003 55 152 3.0 9.0 0.00 0.00 0.00 58 1007.3
20260505211501 55 162 7.0 11.0 0.00 0.00 0.00 58 1007.4
20260505210957 55 57 2.0 6.0 0.00 0.00 0.00 59 1007.4
20260505210454 55 254 1.0 8.0 0.00 0.00 0.00 57 1007.4
20260505205950 55 155 4.0 7.0 0.00 0.00 0.00 55 1007.5
20260505205449 55 14 2.0 5.0 0.00 0.00 0.00 57 1007.6
20260505204945 55 185 2.0 8.0 0.00 0.00 0.00 54 1007.3
20260505204444 55 181 2.0 7.0 0.00 0.00 0.00 56 1007.4
20260505203940 55 310 0.0 5.0 0.00 0.00 0.00 57 1007.4
20260505203437 55 144 0.0 4.0 0.00 0.00 0.00 58 1007.4
20260505202933 55 178 5.0 9.0 0.00 0.00 0.00 57 1007.5